TIME,DELAY(SENSOR),PRES,OXYGEN,RAWTEMP,T(OPTODE),TCPHASE,FLUOR,BETA(BETA700),BETA(BETA412),BETA(BETA440),CDOM,C(CSC),ED(ED412.20),ED(ED444.00),ED(ED489.60),ED(ED554.30),LU(LU412.10),LU(LU443.90),LU(LU489.70),LU(LU554.70),COMP,TILTX,TILTY,CHECK
1352345240,5808,907.7000122070312000,29.0683708190917970,559.4807128906250000,4.5019888877868650,57.2524604797363300,55,99,99,77,83,15550,0,0,0,0,2147124224,2147774171,2147571849,2147567936,1350,3,13,33741
1352348836,5809,985.3099975585938000,35.0384101867675800,567.3552856445312000,4.2577152252197270,56.3453102111816400,56,97,101,78,83,15545,0,0,0,0,2147122907,2147774793,2147575808,2147569673,2287,3,13,28267
1352352436,5809,987.1799926757812000,36.8426704406738300,569.2495117187500000,4.1988811492919920,56.0858001708984400,54,98,99,79,83,15546,0,0,0,0,2147124681,2147769819,2147571830,2147568082,2767,3,13,8851
1352356036,5808,999.8099975585938000,36.8020286560058600,569.7026977539062000,4.1847991943359375,56.1012496948242200,55,99,99,77,82,15535,0,0,0,0,2147123081,2147770642,2147575981,2147569462,341,3,13,39888
1352359636,5807,999.2100219726562000,37.2535095214843750,570.8696899414062000,4.1485328674316410,56.0370597839355500,55,100,100,77,83,15537,0,0,0,0,2147124251,2147774482,2147572352,2147569993,391,3,13,20439
1352363236,5812,993.7299804687500000,37.3969688415527340,571.5065917968750000,4.1287331581115720,56.0236701965332000,55,98,100,78,83,15539,0,0,0,0,2147124608,2147773110,2147571611,2147568603,3272,3,13,64372
1352366836,5809,995.8699951171875000,37.6312599182128900,571.9461059570312000,4.1150679588317870,55.9933891296386700,54,96,99,78,83,15537,0,0,0,0,2147123401,2147772443,2147571629,2147569755,3414,3,13,38764
1352370436,5809,999.3300170898438000,37.1725883483886700,571.8289794921875000,4.1187109947204590,56.0618400573730500,56,101,100,77,83,15536,0,0,0,0,2147125632,2147778358,2147572690,2147567195,293,3,13,5791
1352374036,5809,993.9899902343750000,37.2911186218261700,571.9697265625000000,4.1143341064453125,56.0479583740234400,56,99,101,78,84,15537,0,0,0,0,2147125083,2147780690,2147577636,2147568914,807,3,13,40041
1352377636,5809,1001.1099853515625000,37.9697494506835940,572.6472778320312000,4.0932641029357910,55.9523811340332000,55,99,102,78,84,15537,0,0,0,0,2147126592,2147777892,2147574646,2147570413,190,3,13,22097
1352381236,5808,1001.2999877929688000,37.1281585693359400,572.4114990234375000,4.1005969047546390,56.0723686218261700,55,97,100,77,82,15534,0,0,0,0,2147121161,2147774080,2147577115,2147570962,378,3,13,34360
1352384836,5811,995.1900024414062000,37.1458816528320300,572.7022094726562000,4.0915579795837400,56.0747489929199200,54,99,100,78,83,15537,0,0,0,0,2147119597,2147774034,2147575561,2147569600,51,3,13,44412
1352388436,5812,998.0900268554688000,38.4903411865234400,573.3718872070312000,4.0707302093505860,55.8802299499511700,55,96,100,77,83,15536,0,0,0,0,2147127597,2147774107,2147574811,2147568621,35,3,13,30637
1352392036,5813,1002.8300170898438000,38.6706390380859400,573.3604125976562000,4.0710868835449220,55.8511390686035160,54,99,101,78,81,15535,0,0,0,0,2147124781,2147773092,2147575268,2147569545,65,3,13,20332
1352395636,5814,1001.4500122070312000,38.3349990844726560,572.8613281250000000,4.0866088867187500,55.8976898193359400,54,98,100,78,83,15537,0,0,0,0,2147122633,2147776027,2147571675,2147570048,1,3,13,43348
1352399236,5810,1008.4500122070312000,37.4677391052246100,572.4113769531250000,4.1005988121032715,56.0212898254394500,55,98,102,76,82,15530,0,0,0,0,2147121691,2147775332,2147571355,2147566546,183,3,13,31077
1352402836,5810,1008.9099731445312000,37.2168197631835940,572.0156250000000000,4.1129088401794430,56.0616607666015600,55,98,101,77,83,15534,0,0,0,0,2147126326,2147777124,2147573814,2147569444,178,3,13,58696
1352406436,5812,1011.7999877929688000,36.8185997009277340,572.0723876953125000,4.1111412048339840,56.1210212707519500,55,101,101,78,83,15532,0,0,0,0,2147122102,2147776246,2147570441,2147569618,3562,3,13,35326
1352410036,5811,1011.1699829101562000,36.8756904602050800,571.9822998046875000,4.1139430999755860,56.1136589050293000,55,97,100,77,83,15526,0,0,0,0,2147124900,2147772617,2147573449,2147574226,75,3,13,65437
1352413636,5808,1011.4899902343750000,36.7836685180664060,572.0363159179688000,4.1122632026672360,56.1221885681152340,55,98,100,78,83,15528,0,0,0,0,2147123126,2147773494,2147576164,2147568914,205,3,13,60866
1352417236,5811,1016.5700073242188000,36.4728507995605500,571.7086791992188000,4.1224479675292970,56.1716117858886700,55,98,101,78,83,15527,0,0,0,0,2147122523,2147771355,2147575149,2147569316,3561,3,13,10869
1352420836,5808,1014.2100219726562000,36.0879783630371100,571.7122192382812000,4.1223430633544920,56.2304191589355500,55,97,101,77,83,15528,0,0,0,0,2147124598,2147772379,2147570998,2147570285,187,3,13,37823
1352424436,5810,1017.6599731445312000,36.0247497558593750,570.2232055664062000,4.1686248779296875,56.2223396301269500,56,99,101,78,83,15527,0,0,0,0,2147124763,2147772333,2147579867,2147568338,467,3,13,65274
1352428036,5809,1018.9899902343750000,36.5986900329589840,570.3004150390625000,4.1662249565124510,56.1385917663574200,54,99,100,77,82,15526,0,0,0,0,2147122368,2147779099,2147573622,2147568146,607,3,13,19499
1352431636,5811,1014.0499877929688000,36.5433006286621100,571.4221191406250000,4.1313591003417970,56.1549301147460940,54,97,102,77,83,15528,0,0,0,0,2147125613,2147773485,2147577846,2147566811,3538,3,13,34591
1352435236,5808,1008.6500244140625000,37.5633087158203100,572.5986938476562000,4.0947761535644530,56.0074996948242200,54,98,101,78,83,15527,0,0,0,0,2147123730,2147772425,2147577280,2147570048,2886,3,13,4801
1352438836,5811,1013.2199707031250000,37.8820610046386700,573.0217285156250000,4.0816230773925780,55.9625511169433600,55,97,101,77,82,15528,0,0,0,0,2147121526,2147773339,2147573412,2147568137,2932,3,13,34206
1352442436,5810,1007.1500244140625000,37.9314918518066400,573.1655273437500000,4.0771498680114750,55.9642295837402340,56,102,99,77,84,15527,0,0,0,0,2147123355,2147773750,2147578203,2147569837,545,3,13,11107
1352446036,5809,1008.5900268554688000,37.9661483764648440,572.8621826171875000,4.0865797996521000,55.9497184753418000,55,99,101,77,82,15526,0,0,0,0,2147125485,2147774482,2147578340,2147569033,143,3,13,42389
1352449636,5810,1003.6599731445312000,37.9885101318359400,573.1104125976562000,4.0788650512695310,55.9528083801269500,56,100,100,77,83,15526,0,0,0,0,2147122358,2147774235,2147576356,2147569133,3371,3,13,65220
1352453236,5810,1002.8499755859375000,38.2215003967285160,574.0560913085938000,4.0494461059570310,55.9236717224121100,55,98,101,77,83,15527,0,0,0,0,2147120182,2147772489,2147577024,2147571474,3201,3,13,57334
1352456836,5812,1006.0200195312500000,37.8396110534668000,574.0427856445312000,4.0498600006103520,55.9870109558105500,55,98,101,79,82,15526,0,0,0,0,2147125787,2147775003,2147578550,2147569856,29,3,13,27162
1352460436,5811,1012.9899902343750000,38.0678291320800800,573.6047973632812000,4.0634841918945310,55.9424400329589840,55,100,99,79,82,15523,0,0,0,0,2147123803,2147766875,2147576777,2147568466,3281,3,13,11679
1352464036,5809,1017.4600219726562000,38.2647590637207000,572.2742919921875000,4.1048641204833980,55.9031295776367200,55,99,100,79,83,15526,0,0,0,0,2147121810,2147773531,2147576996,2147571337,3479,3,13,4310
1352467636,5810,1016.3699951171875000,38.0784111022949200,572.0156860351562000,4.1129059791564940,55.9250717163085940,55,103,100,78,83,15523,0,0,0,0,2147128246,2147771611,2147573924,2147571364,220,3,13,30873
1352471236,5809,1010.5900268554688000,38.0535583496093750,572.5064086914062000,4.0976471900939940,55.9340095520019500,54,98,101,79,84,15522,0,0,0,0,2147125732,2147775542,2147574628,2147565604,270,3,13,40868
1352474836,5811,1006.9400024414062000,37.8335800170898440,572.9548950195312000,4.0836977958679200,55.9704704284668000,54,102,100,78,83,15522,0,0,0,0,2147121856,2147771373,2147576091,2147571821,500,3,13,24703
1352478436,5808,1014.0900268554688000,38.0337409973144500,572.9630126953125000,4.0834479331970215,55.9444999694824200,55,99,99,77,82,15513,0,0,0,0,2147128128,2147773970,2147578971,2147567222,218,3,13,16003
1352482036,5810,1012.4099731445312000,37.9781188964843750,572.8306884765625000,4.0875611305236820,55.9494895935058600,55,101,101,77,82,15519,0,0,0,0,2147124461,2147776749,2147579072,2147566546,328,3,13,62125
1352485636,5809,1013.6199951171875000,38.0841407775878900,572.9293212890625000,4.0844941139221190,55.9382400512695300,55,99,101,77,83,15517,0,0,0,0,2147123968,2147771766,2147575954,2147563382,648,3,13,42164
1352489157,5807,1013.6099853515625000,37.8444595336914060,572.9005737304688000,4.0853881835937500,55.9744300842285160,55,98,101,78,83,15518,0,0,0,0,2147128630,2147774866,2147577920,2147567515,465,3,13,62528
